Location: Taupo
(38.6830°S, 176.0830°E)
Time: 22:16:14
(UTC+12:00)

MOS 1 - Pass Details

Date: 24 January 2019
Orbit: 879 x 891 km, 99.2° (Epoch: 17 April)

Event Time Altitude Azimuth Distance (km) Brightness Sun altitude
Rises 21:10:29 0° 166° (SSE) 3,537 7.7 -6.5°
Reaches altitude 10° 21:12:54 10° 165° (SSE) 2,590 7.0 -6.9°
Maximum altitude 21:18:42 85° 76° (ENE) 908 4.3 -7.9°
Drops below altitude 10° 21:24:25 10° 347° (NNW) 2,554 6.5 -8.8°
Sets 21:26:47 0° 346° (NNW) 3,485 7.2 -9.2°
